• In Österreich
  • Länderverzeichnis
  • Für 7 Tage
  • Wassertemperatur
  • Satellitenkarten
  • Wetterkarte
  • News
  • Widgets
  • user-avatar
    Anmelden

    Stündliche Wetter Goliszew

    Heute, 20 Oktober, Samstag

    Zeit Temperatur Niederschläge Wind Luftdruck Luftfeuchtigkeit
    00:00 +12°C° 0 mm 1 m/S 757 mmHg 78%
    01:00 +12°C° 0 mm 1 m/S 757 mmHg 79%
    02:00 +12°C° 0 mm 1 m/S 757 mmHg 79%
    03:00 +12°C° 0 mm 1 m/S 757 mmHg 80%
    04:00 +12°C° 0 mm 1 m/S 757 mmHg 81%
    05:00 +12°C° 0 mm 1 m/S 757 mmHg 82%
    06:00 +11°C° 0 mm 1 m/S 757 mmHg 83%
    07:00 +10°C° 0 mm 2 m/S 758 mmHg 84%
    08:00 +12°C° 0 mm 2 m/S 758 mmHg 81%
    09:00 +12°C° 0 mm 2 m/S 758 mmHg 78%
    10:00 +12°C° 0 mm 3 m/S 758 mmHg 75%
    11:00 +12°C° 0 mm 3 m/S 758 mmHg 71%
    12:00 +13°C° 0 mm 3 m/S 758 mmHg 67%
    13:00 +13°C° 0 mm 4 m/S 758 mmHg 63%
    14:00 +12°C° 0 mm 4 m/S 758 mmHg 62%
    15:00 +12°C° 0 mm 4 m/S 758 mmHg 61%
    16:00 +11°C° 0 mm 4 m/S 757 mmHg 61%
    17:00 +11°C° 0 mm 4 m/S 758 mmHg 62%
    18:00 +11°C° 0 mm 4 m/S 758 mmHg 63%
    19:00 +10°C° 0 mm 4 m/S 758 mmHg 64%
    20:00 +10°C° 0.1 mm 4 m/S 758 mmHg 67%
    21:00 +10°C° 0.1 mm 4 m/S 758 mmHg 69%
    22:00 +8°C° 0.1 mm 4 m/S 759 mmHg 72%
    23:00 +9°C° 0.1 mm 3 m/S 759 mmHg 75%

    Morgen, 21 Oktober, Sonntag

    Zeit Temperatur Niederschläge Wind Luftdruck Luftfeuchtigkeit
    00:00 +8°C° 0.1 mm 3 m/S 758 mmHg 78%
    01:00 +8°C° 0.1 mm 3 m/S 758 mmHg 81%
    02:00 +7°C° 0 mm 3 m/S 758 mmHg 84%
    03:00 +7°C° 0 mm 2 m/S 758 mmHg 87%
    04:00 +6°C° 0 mm 2 m/S 758 mmHg 90%
    05:00 +6°C° 0 mm 2 m/S 758 mmHg 90%
    06:00 +7°C° 0 mm 1 m/S 759 mmHg 91%
    07:00 +7°C° 0 mm 1 m/S 759 mmHg 92%
    08:00 +8°C° 0 mm 1 m/S 759 mmHg 85%
    09:00 +10°C° 0 mm 1 m/S 760 mmHg 77%
    10:00 +11°C° 0 mm 1 m/S 760 mmHg 70%
    11:00 +12°C° 0 mm 1 m/S 760 mmHg 66%
    12:00 +13°C° 0 mm 1 m/S 760 mmHg 62%
    13:00 +14°C° 0 mm 1 m/S 759 mmHg 58%
    14:00 +13°C° 0 mm 1 m/S 759 mmHg 60%
    15:00 +13°C° 0 mm 1 m/S 759 mmHg 61%
    16:00 +12°C° 0 mm 0 m/S 759 mmHg 63%
    17:00 +11°C° 0 mm 0 m/S 759 mmHg 67%
    18:00 +10°C° 0 mm 0 m/S 759 mmHg 71%
    19:00 +9°C° 0 mm 0 m/S 759 mmHg 75%
    20:00 +9°C° 0 mm 0 m/S 759 mmHg 76%
    21:00 +9°C° 0 mm 1 m/S 759 mmHg 78%
    22:00 +9°C° 0 mm 1 m/S 760 mmHg 80%
    23:00 +9°C° 0 mm 1 m/S 759 mmHg 81%

    übermorgen, 22 Oktober, Montag

    Zeit Temperatur Niederschläge Wind Luftdruck Luftfeuchtigkeit
    00:00 +8°C° 0 mm 1 m/S 759 mmHg 83%
    01:00 +8°C° 0 mm 1 m/S 759 mmHg 84%
    02:00 +8°C° 0 mm 1 m/S 759 mmHg 85%
    03:00 +7°C° 0 mm 1 m/S 759 mmHg 86%
    04:00 +7°C° 0 mm 1 m/S 758 mmHg 87%
    05:00 +7°C° 0 mm 1 m/S 758 mmHg 88%
    06:00 +7°C° 0 mm 1 m/S 758 mmHg 88%
    07:00 +7°C° 0 mm 1 m/S 758 mmHg 89%
    08:00 +7°C° 0 mm 2 m/S 758 mmHg 82%
    09:00 +9°C° 0 mm 2 m/S 758 mmHg 74%
    10:00 +12°C° 0 mm 2 m/S 758 mmHg 67%
    11:00 +12°C° 0 mm 2 m/S 758 mmHg 63%
    12:00 +13°C° 0 mm 2 m/S 757 mmHg 58%
    13:00 +13°C° 0 mm 3 m/S 757 mmHg 54%
    14:00 +14°C° 0 mm 2 m/S 756 mmHg 56%
    15:00 +13°C° 0 mm 2 m/S 756 mmHg 59%
    16:00 +13°C° 0 mm 2 m/S 756 mmHg 61%
    17:00 +12°C° 0 mm 2 m/S 756 mmHg 65%
    18:00 +10°C° 0 mm 2 m/S 756 mmHg 69%
    19:00 +9°C° 0 mm 3 m/S 756 mmHg 73%
    20:00 +9°C° 0.5 mm 3 m/S 756 mmHg 76%
    21:00 +8°C° 0.5 mm 4 m/S 756 mmHg 80%
    22:00 +7°C° 0.5 mm 4 m/S 756 mmHg 84%
    23:00 +7°C° 0.6 mm 4 m/S 757 mmHg 82%

    23 Oktober, Dienstag

    Zeit Temperatur Niederschläge Wind Luftdruck Luftfeuchtigkeit
    00:00 +7°C° 0.6 mm 4 m/S 757 mmHg 80%
    01:00 +7°C° 0.6 mm 5 m/S 757 mmHg 78%
    02:00 +6°C° 0 mm 5 m/S 757 mmHg 78%
    03:00 +6°C° 0 mm 4 m/S 757 mmHg 78%
    04:00 +6°C° 0 mm 4 m/S 757 mmHg 77%
    05:00 +5°C° 0 mm 4 m/S 757 mmHg 80%
    06:00 +5°C° 0 mm 4 m/S 757 mmHg 83%
    07:00 +4°C° 0 mm 4 m/S 757 mmHg 86%
    08:00 +5°C° 0 mm 4 m/S 757 mmHg 80%
    09:00 +6°C° 0 mm 5 m/S 757 mmHg 74%
    10:00 +8°C° 0 mm 5 m/S 757 mmHg 68%
    11:00 +8°C° 0 mm 6 m/S 756 mmHg 64%
    12:00 +9°C° 0 mm 6 m/S 755 mmHg 61%
    13:00 +9°C° 0 mm 7 m/S 754 mmHg 58%
    14:00 +9°C° 0.1 mm 7 m/S 753 mmHg 61%
    15:00 +7°C° 0.1 mm 8 m/S 752 mmHg 65%
    16:00 +7°C° 0.1 mm 9 m/S 751 mmHg 68%
    17:00 +7°C° 0.6 mm 9 m/S 750 mmHg 71%
    18:00 +7°C° 0.6 mm 10 m/S 749 mmHg 75%
    19:00 +6°C° 0.6 mm 11 m/S 747 mmHg 78%
    20:00 +7°C° 1.3 mm 11 m/S 746 mmHg 79%
    21:00 +7°C° 1.3 mm 12 m/S 745 mmHg 81%
    22:00 +7°C° 1.3 mm 12 m/S 743 mmHg 82%
    23:00 +8°C° 1 mm 12 m/S 742 mmHg 82%

    24 Oktober, Mittwoch

    Zeit Temperatur Niederschläge Wind Luftdruck Luftfeuchtigkeit
    00:00 +9°C° 1 mm 12 m/S 741 mmHg 82%
    01:00 +10°C° 1 mm 12 m/S 740 mmHg 83%
    02:00 +9°C° 0.7 mm 12 m/S 740 mmHg 80%
    03:00 +9°C° 0.7 mm 11 m/S 740 mmHg 77%
    04:00 +9°C° 0.7 mm 10 m/S 740 mmHg 74%
    05:00 +8°C° 0 mm 10 m/S 741 mmHg 75%
    06:00 +8°C° 0 mm 9 m/S 741 mmHg 76%
    07:00 +7°C° 0 mm 9 m/S 742 mmHg 78%
    08:00 +8°C° 0 mm 9 m/S 743 mmHg 71%
    09:00 +8°C° 0 mm 9 m/S 743 mmHg 65%
    10:00 +9°C° 0 mm 10 m/S 744 mmHg 59%
    11:00 +9°C° 0 mm 10 m/S 744 mmHg 54%
    12:00 +9°C° 0 mm 10 m/S 744 mmHg 49%
    13:00 +10°C° 0 mm 9 m/S 745 mmHg 44%
    14:00 +10°C° 0 mm 8 m/S 745 mmHg 45%
    15:00 +9°C° 0 mm 7 m/S 746 mmHg 46%
    16:00 +8°C° 0 mm 6 m/S 746 mmHg 47%
    17:00 +7°C° 0 mm 5 m/S 746 mmHg 49%
    18:00 +7°C° 0 mm 5 m/S 747 mmHg 50%
    19:00 +6°C° 0 mm 5 m/S 747 mmHg 51%
    20:00 +6°C° 0 mm 4 m/S 747 mmHg 53%
    21:00 +6°C° 0 mm 4 m/S 748 mmHg 55%
    22:00 +6°C° 0 mm 4 m/S 748 mmHg 57%
    23:00 +6°C° 0 mm 4 m/S 748 mmHg 64%

    25 Oktober, Donnerstag

    Zeit Temperatur Niederschläge Wind Luftdruck Luftfeuchtigkeit
    00:00 +6°C° 0 mm 5 m/S 748 mmHg 70%
    01:00 +5°C° 0 mm 5 m/S 748 mmHg 77%
    02:00 +5°C° 0 mm 5 m/S 748 mmHg 81%
    03:00 +5°C° 0 mm 5 m/S 748 mmHg 84%
    04:00 +5°C° 0 mm 5 m/S 748 mmHg 88%
    05:00 +5°C° 0.1 mm 5 m/S 748 mmHg 88%
    06:00 +6°C° 0.1 mm 5 m/S 747 mmHg 88%
    07:00 +7°C° 0.1 mm 6 m/S 747 mmHg 88%
    08:00 +8°C° 0.2 mm 7 m/S 746 mmHg 85%
    09:00 +9°C° 0.2 mm 8 m/S 746 mmHg 83%
    10:00 +11°C° 0.2 mm 9 m/S 745 mmHg 80%
    11:00 +9°C° 0.1 mm 10 m/S 745 mmHg 78%
    12:00 +9°C° 0.1 mm 10 m/S 745 mmHg 76%
    13:00 +8°C° 0.1 mm 10 m/S 745 mmHg 74%
    14:00 +8°C° 0 mm 9 m/S 744 mmHg 73%
    15:00 +8°C° 0 mm 9 m/S 744 mmHg 73%
    16:00 +8°C° 0 mm 9 m/S 744 mmHg 72%
    17:00 +8°C° 0 mm 9 m/S 744 mmHg 73%
    18:00 +8°C° 0 mm 9 m/S 744 mmHg 73%
    19:00 +10°C° 0 mm 9 m/S 744 mmHg 73%
    20:00 +8°C° 0.1 mm 9 m/S 743 mmHg 75%
    21:00 +8°C° 0.1 mm 10 m/S 743 mmHg 77%
    22:00 +8°C° 0.1 mm 10 m/S 743 mmHg 79%
    23:00 +8°C° 0.4 mm 11 m/S 743 mmHg 77%
    Mehr zeigen